Time,TemperatureF,DewpointF,PressureIn,WindDirection,WindDirectionDegrees,WindSpeedMPH,WindSpeedGustMPH,Humidity,HourlyPrecipIn,Conditions,Clouds,dailyrainin,SolarRadiationWatts/m^2,SoftwareType,DateUTC
2013-09-02 00:00:00,71.3,69.8,29.82,South,175,6.0,7.0,95,0.00,,OVC002,0.00,0.00,VWS V14.01,2013-09-02 04:00:00,
2013-09-02 00:01:00,71.3,69.8,29.82,South,169,0.0,6.0,95,0.00,,OVC010,0.00,0.00,VWS V14.01,2013-09-02 04:01:00,
2013-09-02 00:02:00,71.3,69.8,29.82,South,169,2.0,6.0,95,0.00,,OVC010,0.00,0.00,VWS V14.01,2013-09-02 04:02:00,
2013-09-02 00:07:00,71.3,69.8,29.82,SSW,197,4.0,6.0,95,0.00,,OVC010,0.00,0.00,VWS V14.01,2013-09-02 04:07:00,
2013-09-02 00:12:00,71.3,69.8,29.82,South,186,2.0,9.0,95,0.00,,OVC010,0.00,0.00,VWS V14.01,2013-09-02 04:12:00,
2013-09-02 00:18:00,71.3,69.8,29.81,ESE,116,1.0,9.0,95,0.00,,OVC010,0.00,0.00,VWS V14.01,2013-09-02 04:18:00,
2013-09-02 00:23:00,71.3,69.8,29.81,SSE,158,3.0,9.0,95,0.00,,OVC003,0.00,0.00,VWS V14.01,2013-09-02 04:23:00,
2013-09-02 00:28:00,71.3,69.8,29.81,South,183,1.0,9.0,95,0.00,,OVC003,0.00,0.00,VWS V14.01,2013-09-02 04:28:00,
2013-09-02 00:33:00,71.2,69.7,29.81,South,181,4.0,9.0,95,0.00,,OVC003,0.00,0.00,VWS V14.01,2013-09-02 04:33:00,
2013-09-02 00:38:00,71.2,69.7,29.81,SSW,213,3.0,9.0,95,0.00,,OVC003,0.00,0.00,VWS V14.01,2013-09-02 04:38:00,
2013-09-02 00:43:00,71.1,69.6,29.81,SW,223,1.0,9.0,95,0.00,,OVC003,0.00,0.00,VWS V14.01,2013-09-02 04:43:00,
2013-09-02 00:48:00,71.1,69.6,29.81,South,180,3.0,9.0,95,0.00,,OVC003,0.00,0.00,VWS V14.01,2013-09-02 04:48:00,
2013-09-02 00:53:00,71.0,69.5,29.81,SSW,211,2.0,9.0,95,0.00,,OVC003,0.00,0.00,VWS V14.01,2013-09-02 04:53:00,
2013-09-02 00:58:00,71.0,69.5,29.81,WSW,253,0.0,9.0,95,0.00,,OVC003,0.00,0.00,VWS V14.01,2013-09-02 04:58:00,
2013-09-02 01:00:00,71.0,69.5,29.81,South,177,1.0,9.0,95,0.00,,OVC002,0.00,0.00,VWS V14.01,2013-09-02 05:00:00,
2013-09-02 01:03:00,71.0,69.5,29.81,SSW,205,2.0,3.0,95,0.00,,OVC003,0.00,0.00,VWS V14.01,2013-09-02 05:03:00,
2013-09-02 01:08:00,70.9,69.4,29.81,South,173,0.0,5.0,95,0.00,,OVC003,0.00,0.00,VWS V14.01,2013-09-02 05:08:00,
2013-09-02 01:13:00,70.9,69.4,29.80,South,171,3.0,5.0,95,0.00,,OVC003,0.00,0.00,VWS V14.01,2013-09-02 05:13:00,
2013-09-02 01:18:00,70.9,69.4,29.80,SSW,204,2.0,5.0,95,0.00,,OVC003,0.00,0.00,VWS V14.01,2013-09-02 05:18:00,
2013-09-02 01:23:00,70.9,69.4,29.80,South,190,2.0,5.0,95,0.00,,OVC003,0.00,0.00,VWS V14.01,2013-09-02 05:23:00,
2013-09-02 01:28:00,70.9,69.4,29.80,South,184,2.0,5.0,95,0.00,,OVC003,0.00,0.00,VWS V14.01,2013-09-02 05:28:00,
2013-09-02 01:33:00,70.9,69.4,29.80,South,177,2.0,5.0,95,0.00,,OVC003,0.00,0.00,VWS V14.01,2013-09-02 05:33:00,
2013-09-02 01:38:00,71.0,69.5,29.80,SSE,167,0.0,7.0,95,0.00,,OVC003,0.00,0.00,VWS V14.01,2013-09-02 05:38:00,
2013-09-02 01:43:00,70.9,69.4,29.80,South,184,0.0,7.0,95,0.00,,OVC002,0.00,0.00,VWS V14.01,2013-09-02 05:43:00,
2013-09-02 01:49:00,71.0,69.5,29.79,South,169,2.0,7.0,95,0.00,,OVC002,0.00,0.00,VWS V14.01,2013-09-02 05:49:00,
2013-09-02 01:54:00,71.0,69.5,29.79,WSW,238,2.0,7.0,95,0.00,,OVC002,0.00,0.00,VWS V14.01,2013-09-02 05:54:00,
2013-09-02 01:59:00,71.0,69.5,29.79,SSW,209,1.0,7.0,95,0.00,,OVC002,0.00,0.00,VWS V14.01,2013-09-02 05:59:00,
2013-09-02 02:00:00,71.0,69.5,29.79,SSW,203,1.0,7.0,95,0.00,,OVC002,0.00,0.00,VWS V14.01,2013-09-02 06:00:00,
2013-09-02 02:04:00,71.0,69.5,29.79,SSE,167,1.0,5.0,95,0.00,,OVC002,0.00,0.00,VWS V14.01,2013-09-02 06:04:00,
2013-09-02 02:09:00,71.0,69.5,29.78,South,186,0.0,5.0,95,0.00,,OVC002,0.00,0.00,VWS V14.01,2013-09-02 06:09:00,
2013-09-02 02:14:00,71.0,69.5,29.78,South,189,0.0,7.0,95,0.00,,OVC002,0.00,0.00,VWS V14.01,2013-09-02 06:14:00,
2013-09-02 02:19:00,71.0,69.5,29.78,South,189,1.0,7.0,95,0.00,,OVC002,0.00,0.00,VWS V14.01,2013-09-02 06:19:00,
2013-09-02 02:24:00,71.0,69.5,29.78,SSW,198,1.0,7.0,95,0.00,,OVC003,0.00,0.00,VWS V14.01,2013-09-02 06:24:00,
2013-09-02 02:29:00,71.0,69.5,29.78,South,188,0.0,7.0,95,0.00,,OVC003,0.00,0.00,VWS V14.01,2013-09-02 06:29:00,
2013-09-02 02:34:00,71.0,69.5,29.78,South,187,0.0,7.0,95,0.00,,OVC003,0.00,0.00,VWS V14.01,2013-09-02 06:34:00,
2013-09-02 02:39:00,71.0,69.5,29.78,South,189,0.0,7.0,95,0.00,,OVC003,0.00,0.00,VWS V14.01,2013-09-02 06:39:00,
2013-09-02 02:44:00,71.0,69.5,29.78,South,187,0.0,7.0,95,0.00,,OVC004,0.00,0.00,VWS V14.01,2013-09-02 06:44:00,
2013-09-02 02:49:00,71.0,69.5,29.78,South,170,0.0,7.0,95,0.00,,OVC004,0.00,0.00,VWS V14.01,2013-09-02 06:49:00,
2013-09-02 02:54:00,71.0,69.5,29.78,South,173,2.0,7.0,95,0.00,,OVC004,0.00,0.00,VWS V14.01,2013-09-02 06:54:00,
2013-09-02 02:59:00,71.0,69.5,29.78,SW,215,1.0,1.0,95,0.00,,OVC004,0.00,0.00,VWS V14.01,2013-09-02 06:59:00,
2013-09-02 03:00:00,71.0,69.5,29.78,SW,215,0.0,7.0,95,0.00,,OVC002,0.00,0.00,VWS V14.01,2013-09-02 07:00:00,
2013-09-02 03:04:00,71.0,69.5,29.78,South,184,1.0,3.0,95,0.00,,OVC004,0.00,0.00,VWS V14.01,2013-09-02 07:04:00,
2013-09-02 03:09:00,71.0,69.5,29.78,South,183,0.0,3.0,95,0.00,,OVC004,0.00,0.00,VWS V14.01,2013-09-02 07:09:00,
2013-09-02 03:14:00,71.0,69.5,29.78,South,180,2.0,3.0,95,0.00,,OVC004,0.00,0.00,VWS V14.01,2013-09-02 07:14:00,
2013-09-02 03:20:00,71.0,69.5,29.78,South,173,3.0,3.0,95,0.00,,OVC004,0.00,0.00,VWS V14.01,2013-09-02 07:20:00,
2013-09-02 03:25:00,71.0,69.5,29.78,South,180,0.0,4.0,95,0.00,,OVC004,0.00,0.00,VWS V14.01,2013-09-02 07:25:00,
2013-09-02 03:30:00,70.9,69.4,29.78,South,179,0.0,4.0,95,0.00,,OVC004,0.00,0.00,VWS V14.01,2013-09-02 07:30:00,
2013-09-02 03:35:00,70.9,69.4,29.78,SSE,153,2.0,4.0,95,0.00,,OVC004,0.00,0.00,VWS V14.01,2013-09-02 07:35:00,
2013-09-02 03:40:00,70.9,69.4,29.78,SSW,195,0.0,4.0,95,0.00,,OVC005,0.00,0.00,VWS V14.01,2013-09-02 07:40:00,
2013-09-02 03:45:00,70.8,69.3,29.78,South,169,0.0,4.0,95,0.00,,OVC005,0.00,0.00,VWS V14.01,2013-09-02 07:45:00,
2013-09-02 03:50:00,70.8,69.3,29.78,South,169,1.0,4.0,95,0.00,,OVC005,0.00,0.00,VWS V14.01,2013-09-02 07:50:00,
2013-09-02 03:55:00,70.8,69.3,29.78,South,171,1.0,4.0,95,0.00,,OVC005,0.00,0.00,VWS V14.01,2013-09-02 07:55:00,
2013-09-02 04:00:00,70.8,69.3,29.77,South,171,0.0,1.0,95,0.00,,OVC005,0.00,0.00,VWS V14.01,2013-09-02 08:00:00,
2013-09-02 04:05:00,70.7,69.2,29.77,South,171,3.0,3.0,95,0.00,,OVC005,0.00,0.00,VWS V14.01,2013-09-02 08:05:00,
2013-09-02 04:10:00,70.6,69.1,29.78,South,169,0.0,3.0,95,0.00,,OVC005,0.00,0.00,VWS V14.01,2013-09-02 08:10:00,
2013-09-02 04:15:00,70.6,69.1,29.77,South,182,0.0,3.0,95,0.00,,OVC005,0.00,0.00,VWS V14.01,2013-09-02 08:15:00,
2013-09-02 04:20:00,70.6,69.1,29.77,South,182,0.0,3.0,95,0.00,,OVC008,0.00,0.00,VWS V14.01,2013-09-02 08:20:00,
2013-09-02 04:25:00,70.6,69.1,29.77,SSE,150,0.0,3.0,95,0.00,,OVC008,0.00,0.00,VWS V14.01,2013-09-02 08:25:00,
2013-09-02 04:30:00,70.6,69.1,29.77,SE,141,1.0,5.0,95,0.00,,OVC008,0.00,0.00,VWS V14.01,2013-09-02 08:30:00,
2013-09-02 04:35:00,70.6,69.1,29.78,SSE,161,2.0,5.0,95,0.00,,OVC008,0.00,0.00,VWS V14.01,2013-09-02 08:35:00,
2013-09-02 04:40:00,70.5,69.0,29.77,South,180,2.0,5.0,95,0.00,,OVC010,0.00,0.00,VWS V14.01,2013-09-02 08:40:00,
2013-09-02 04:46:00,70.5,69.0,29.77,South,178,2.0,5.0,95,0.00,,OVC010,0.00,0.00,VWS V14.01,2013-09-02 08:46:00,
2013-09-02 04:51:00,70.5,69.0,29.77,South,182,0.0,5.0,95,0.00,,OVC010,0.00,0.00,VWS V14.01,2013-09-02 08:51:00,
2013-09-02 04:56:00,70.5,69.0,29.77,South,180,2.0,6.0,95,0.00,,OVC010,0.00,0.00,VWS V14.01,2013-09-02 08:56:00,
2013-09-02 05:00:00,70.4,68.9,29.77,South,179,0.0,6.0,95,0.00,,OVC002,0.00,0.00,VWS V14.01,2013-09-02 09:00:00,
2013-09-02 05:01:00,70.4,68.9,29.77,SE,134,0.0,5.0,95,0.00,,OVC005,0.00,0.00,VWS V14.01,2013-09-02 09:01:00,
2013-09-02 05:06:00,70.4,68.9,29.77,South,169,5.0,6.0,95,0.00,,OVC005,0.00,0.00,VWS V14.01,2013-09-02 09:06:00,
2013-09-02 05:11:00,70.4,68.9,29.77,South,186,2.0,6.0,95,0.00,,OVC005,0.00,0.00,VWS V14.01,2013-09-02 09:11:00,
2013-09-02 05:16:00,70.4,68.9,29.77,South,180,0.0,6.0,95,0.00,,OVC005,0.00,0.00,VWS V14.01,2013-09-02 09:16:00,
2013-09-02 05:21:00,70.4,68.9,29.78,South,183,1.0,6.0,95,0.00,,OVC006,0.00,0.00,VWS V14.01,2013-09-02 09:21:00,
2013-09-02 05:26:00,70.5,69.0,29.78,South,186,1.0,6.0,95,0.00,,OVC006,0.00,0.00,VWS V14.01,2013-09-02 09:26:00,
2013-09-02 05:31:00,70.5,69.0,29.78,South,171,1.0,6.0,95,0.00,,OVC006,0.00,0.00,VWS V14.01,2013-09-02 09:31:00,
2013-09-02 05:36:00,70.5,69.0,29.78,SSW,192,1.0,6.0,95,0.00,,OVC006,0.00,0.00,VWS V14.01,2013-09-02 09:36:00,
2013-09-02 05:41:00,70.5,69.0,29.78,South,177,1.0,6.0,95,0.00,,OVC018,0.00,0.00,VWS V14.01,2013-09-02 09:41:00,
2013-09-02 05:46:00,70.5,69.0,29.78,SSE,168,2.0,6.0,95,0.00,,OVC018,0.00,0.00,VWS V14.01,2013-09-02 09:46:00,
2013-09-02 05:51:00,70.5,69.0,29.78,SSW,192,0.0,6.0,95,0.01,,OVC018,0.01,0.00,VWS V14.01,2013-09-02 09:51:00,
2013-09-02 05:56:00,70.5,69.0,29.78,SSE,166,4.0,7.0,95,0.01,,OVC018,0.01,0.00,VWS V14.01,2013-09-02 09:56:00,
2013-09-02 06:00:00,70.5,69.0,29.78,SSE,157,2.0,7.0,95,0.01,,OVC002,0.01,0.00,VWS V14.01,2013-09-02 10:00:00,
2013-09-02 06:01:00,70.5,69.0,29.78,South,172,1.0,5.0,95,0.01,,OVC004,0.01,0.00,VWS V14.01,2013-09-02 10:01:00,
2013-09-02 06:06:00,70.5,69.0,29.78,SSW,203,3.0,7.0,95,0.01,,OVC004,0.01,0.00,VWS V14.01,2013-09-02 10:06:00,
2013-09-02 06:11:00,70.5,69.0,29.78,South,169,5.0,8.0,95,0.01,,OVC004,0.01,0.00,VWS V14.01,2013-09-02 10:11:00,
2013-09-02 06:17:00,70.5,69.0,29.78,South,182,1.0,8.0,95,0.01,,OVC004,0.01,0.00,VWS V14.01,2013-09-02 10:17:00,
2013-09-02 06:22:00,70.3,68.8,29.78,SSE,168,3.0,8.0,95,0.01,,OVC014,0.01,0.00,VWS V14.01,2013-09-02 10:22:00,
2013-09-02 06:27:00,69.8,68.3,29.78,SSE,160,1.0,8.0,95,0.01,,OVC014,0.01,0.00,VWS V14.01,2013-09-02 10:27:00,
2013-09-02 06:32:00,69.1,67.6,29.78,South,174,1.0,10.0,95,0.02,,OVC014,0.02,0.00,VWS V14.01,2013-09-02 10:32:00,
2013-09-02 06:37:00,68.5,67.0,29.78,SW,227,0.0,10.0,95,0.02,,OVC014,0.02,5.00,VWS V14.01,2013-09-02 10:37:00,
2013-09-02 06:42:00,68.5,67.0,29.78,SW,227,1.0,10.0,95,0.02,,,0.02,7.00,VWS V14.01,2013-09-02 10:42:00,
2013-09-02 06:47:00,68.3,66.8,29.79,SE,144,1.0,10.0,95,0.03,,,0.03,5.00,VWS V14.01,2013-09-02 10:47:00,
2013-09-02 06:52:00,67.9,66.4,29.80,South,190,0.0,10.0,95,0.03,,,0.03,7.00,VWS V14.01,2013-09-02 10:52:00,
2013-09-02 06:57:00,67.7,66.2,29.80,South,173,2.0,10.0,95,0.03,,,0.03,7.00,VWS V14.01,2013-09-02 10:57:00,
2013-09-02 07:00:00,67.7,66.2,29.80,South,175,0.0,10.0,95,0.03,,OVC002,0.03,5.00,VWS V14.01,2013-09-02 11:00:00,
2013-09-02 07:02:00,67.6,66.1,29.80,South,188,0.0,2.0,95,0.02,,,0.03,5.00,VWS V14.01,2013-09-02 11:02:00,
2013-09-02 07:07:00,67.5,66.0,29.79,South,173,1.0,3.0,95,0.02,,,0.03,0.00,VWS V14.01,2013-09-02 11:07:00,
2013-09-02 07:12:00,67.5,66.0,29.79,South,173,1.0,3.0,95,0.03,,,0.04,0.00,VWS V14.01,2013-09-02 11:12:00,
2013-09-02 07:18:00,67.5,66.0,29.79,SSW,192,1.0,3.0,95,0.03,,,0.04,0.00,VWS V14.01,2013-09-02 11:18:00,
2013-09-02 07:23:00,67.5,66.0,29.79,SSW,192,0.0,3.0,95,0.04,,,0.05,5.00,VWS V14.01,2013-09-02 11:23:00,
2013-09-02 07:28:00,67.5,66.0,29.79,SSW,192,0.0,3.0,95,0.04,,,0.05,7.00,VWS V14.01,2013-09-02 11:28:00,
2013-09-02 07:33:00,67.4,65.9,29.78,SSW,192,0.0,3.0,95,0.04,,,0.05,11.00,VWS V14.01,2013-09-02 11:33:00,
2013-09-02 07:38:00,67.4,65.9,29.78,SSW,192,0.0,3.0,95,0.05,,,0.06,9.00,VWS V14.01,2013-09-02 11:38:00,
2013-09-02 07:43:00,67.5,66.0,29.78,SSW,192,0.0,3.0,95,0.05,,,0.06,7.00,VWS V14.01,2013-09-02 11:43:00,
2013-09-02 07:48:00,67.5,66.0,29.79,SSW,192,1.0,3.0,95,0.06,,,0.07,5.00,VWS V14.01,2013-09-02 11:48:00,
2013-09-02 07:53:00,67.5,66.0,29.80,WSW,255,0.0,3.0,95,0.06,,,0.07,5.00,VWS V14.01,2013-09-02 11:53:00,
2013-09-02 07:58:00,67.6,66.1,29.79,SW,222,0.0,3.0,95,0.07,,,0.08,0.00,VWS V14.01,2013-09-02 11:58:00,
2013-09-02 08:00:00,67.6,66.1,29.79,SW,222,0.0,3.0,95,0.07,,OVC002,0.08,0.00,VWS V14.01,2013-09-02 12:00:00,
2013-09-02 08:03:00,67.6,66.1,29.79,WSW,252,0.0,2.0,95,0.05,,OVC036,0.08,5.00,VWS V14.01,2013-09-02 12:03:00,
2013-09-02 08:08:00,67.7,66.2,29.78,South,182,0.0,2.0,95,0.06,,OVC036,0.09,18.00,VWS V14.01,2013-09-02 12:08:00,
2013-09-02 08:13:00,67.7,66.2,29.78,South,182,0.0,2.0,95,0.08,,OVC036,0.11,47.00,VWS V14.01,2013-09-02 12:13:00,
2013-09-02 08:18:00,67.9,66.4,29.77,South,182,0.0,2.0,95,0.09,,OVC036,0.12,93.00,VWS V14.01,2013-09-02 12:18:00,
2013-09-02 08:23:00,68.2,66.7,29.78,South,182,1.0,5.0,95,0.10,,OVC015,0.13,97.00,VWS V14.01,2013-09-02 12:23:00,
2013-09-02 08:28:00,68.5,67.0,29.78,South,182,3.0,5.0,95,0.12,,OVC015,0.15,114.00,VWS V14.01,2013-09-02 12:28:00,
2013-09-02 08:33:00,68.8,67.3,29.78,SSE,165,2.0,5.0,95,0.13,,OVC015,0.16,125.00,VWS V14.01,2013-09-02 12:33:00,
2013-09-02 08:38:00,69.0,67.5,29.78,South,173,4.0,5.0,95,0.14,,OVC015,0.17,98.00,VWS V14.01,2013-09-02 12:38:00,
2013-09-02 08:43:00,69.0,67.5,29.77,South,186,1.0,5.0,95,0.16,,OVC005,0.19,149.00,VWS V14.01,2013-09-02 12:43:00,
2013-09-02 08:49:00,69.2,67.7,29.77,SSE,161,1.0,5.0,95,0.17,,OVC005,0.20,158.00,VWS V14.01,2013-09-02 12:49:00,
2013-09-02 08:54:00,69.3,67.8,29.77,SSW,192,3.0,5.0,95,0.18,,OVC005,0.21,190.00,VWS V14.01,2013-09-02 12:54:00,
2013-09-02 08:59:00,69.4,67.9,29.77,South,170,1.0,6.0,95,0.19,,OVC005,0.22,190.00,VWS V14.01,2013-09-02 12:59:00,
2013-09-02 09:00:00,69.4,67.9,29.77,SE,146,2.0,6.0,95,0.19,,OVC002,0.22,190.00,VWS V14.01,2013-09-02 13:00:00,
2013-09-02 09:04:00,69.4,67.9,29.77,South,175,3.0,5.0,95,0.15,,OVC005,0.23,190.00,VWS V14.01,2013-09-02 13:04:00,
2013-09-02 09:09:00,69.5,68.0,29.77,South,176,3.0,5.0,95,0.16,,OVC005,0.24,121.00,VWS V14.01,2013-09-02 13:09:00,
2013-09-02 09:14:00,69.5,68.0,29.77,South,177,1.0,5.0,95,0.17,,OVC003,0.25,132.00,VWS V14.01,2013-09-02 13:14:00,
2013-09-02 09:19:00,69.7,68.2,29.77,South,173,1.0,5.0,95,0.19,,OVC003,0.27,121.00,VWS V14.01,2013-09-02 13:19:00,
2013-09-02 09:24:00,69.9,68.4,29.76,South,169,5.0,5.0,95,0.19,,OVC003,0.27,153.00,VWS V14.01,2013-09-02 13:24:00,
2013-09-02 09:29:00,69.9,68.4,29.76,South,171,3.0,5.0,95,0.20,,OVC003,0.28,127.00,VWS V14.01,2013-09-02 13:29:00,
2013-09-02 09:34:00,70.2,68.7,29.77,South,184,4.0,5.0,95,0.21,,OVC003,0.29,127.00,VWS V14.01,2013-09-02 13:34:00,
2013-09-02 09:39:00,70.3,68.8,29.77,South,173,3.0,5.0,95,0.22,,OVC003,0.30,107.00,VWS V14.01,2013-09-02 13:39:00,
2013-09-02 09:44:00,70.4,68.9,29.77,SSE,161,0.0,7.0,95,0.23,,OVC002,0.31,107.00,VWS V14.01,2013-09-02 13:44:00,
2013-09-02 09:49:00,70.5,69.0,29.77,South,177,0.0,7.0,95,0.24,,OVC002,0.32,127.00,VWS V14.01,2013-09-02 13:49:00,
2013-09-02 09:54:00,70.7,69.2,29.77,WSW,257,0.0,7.0,95,0.25,,OVC002,0.33,116.00,VWS V14.01,2013-09-02 13:54:00,
2013-09-02 09:59:00,70.9,69.4,29.77,SSW,211,4.0,6.0,95,0.12,,OVC002,0.34,257.00,VWS V14.01,2013-09-02 13:59:00,
2013-09-02 10:04:00,71.3,69.8,29.77,South,171,10.0,10.0,95,0.12,,OVC002,0.34,207.00,VWS V14.01,2013-09-02 14:04:00,
2013-09-02 10:09:00,71.7,70.2,29.76,West,274,1.0,10.0,95,0.13,,OVC002,0.35,237.00,VWS V14.01,2013-09-02 14:09:00,
2013-09-02 10:15:00,72.0,70.5,29.77,SSE,153,4.0,10.0,95,0.14,,OVC002,0.36,197.00,VWS V14.01,2013-09-02 14:15:00,
2013-09-02 10:20:00,72.1,70.6,29.77,SE,146,3.0,10.0,95,0.15,,OVC002,0.37,172.00,VWS V14.01,2013-09-02 14:20:00,
2013-09-02 10:25:00,72.1,70.6,29.77,South,178,0.0,10.0,95,0.15,,OVC002,0.37,232.00,VWS V14.01,2013-09-02 14:25:00,
2013-09-02 10:30:00,72.4,70.9,29.77,SW,221,0.0,10.0,95,0.16,,OVC002,0.38,190.00,VWS V14.01,2013-09-02 14:30:00,
2013-09-02 10:35:00,72.4,70.9,29.77,South,176,4.0,10.0,95,0.17,,OVC002,0.39,169.00,VWS V14.01,2013-09-02 14:35:00,
2013-09-02 10:40:00,72.6,71.1,29.77,South,176,0.0,10.0,95,0.17,,OVC003,0.39,153.00,VWS V14.01,2013-09-02 14:40:00,
2013-09-02 10:45:00,72.7,71.2,29.77,South,189,0.0,10.0,95,0.18,,OVC003,0.40,165.00,VWS V14.01,2013-09-02 14:45:00,
2013-09-02 10:50:00,72.9,71.4,29.77,South,170,5.0,10.0,95,0.19,,OVC003,0.41,325.00,VWS V14.01,2013-09-02 14:50:00,
2013-09-02 10:55:00,73.2,71.7,29.77,SE,131,1.0,10.0,95,0.19,,OVC003,0.41,255.00,VWS V14.01,2013-09-02 14:55:00,
2013-09-02 11:00:00,73.4,71.9,29.77,SSE,159,1.0,4.0,95,0.07,,OVC004,0.41,316.00,VWS V14.01,2013-09-02 15:00:00,
2013-09-02 11:05:00,73.4,71.9,29.77,SW,236,5.0,6.0,95,0.08,,OVC004,0.42,227.00,VWS V14.01,2013-09-02 15:05:00,
2013-09-02 11:10:00,73.3,71.8,29.77,South,171,4.0,9.0,95,0.08,,OVC004,0.42,371.00,VWS V14.01,2013-09-02 15:10:00,
2013-09-02 11:15:00,73.9,72.4,29.76,SW,225,1.0,9.0,95,0.09,,OVC004,0.43,236.00,VWS V14.01,2013-09-02 15:15:00,
2013-09-02 11:20:00,73.8,72.3,29.76,SSE,168,6.0,9.0,95,0.09,,OVC015,0.43,366.00,VWS V14.01,2013-09-02 15:20:00,
2013-09-02 11:25:00,74.0,72.5,29.76,SSW,200,6.0,9.0,95,0.09,,OVC015,0.43,163.00,VWS V14.01,2013-09-02 15:25:00,
2013-09-02 11:31:00,74.0,72.5,29.76,South,185,3.0,9.0,95,0.10,,OVC015,0.44,149.00,VWS V14.01,2013-09-02 15:31:00,
2013-09-02 11:36:00,74.5,73.0,29.76,SW,230,3.0,9.0,95,0.10,,OVC015,0.44,258.00,VWS V14.01,2013-09-02 15:36:00,
2013-09-02 11:41:00,75.0,73.2,29.76,SSE,163,5.0,9.0,94,0.10,,OVC024,0.44,281.00,VWS V14.01,2013-09-02 15:41:00,
2013-09-02 11:46:00,75.3,73.5,29.76,South,189,1.0,9.0,94,0.11,,OVC024,0.45,113.00,VWS V14.01,2013-09-02 15:46:00,
2013-09-02 11:51:00,75.3,73.5,29.76,South,188,3.0,9.0,94,0.11,,OVC024,0.45,109.00,VWS V14.01,2013-09-02 15:51:00,
2013-09-02 11:56:00,75.1,72.9,29.76,SSW,196,0.0,9.0,93,0.11,,OVC024,0.45,197.00,VWS V14.01,2013-09-02 15:56:00,
2013-09-02 12:01:00,75.0,72.8,29.76,SSE,162,1.0,2.0,93,0.04,,OVC024,0.45,244.00,VWS V14.01,2013-09-02 16:01:00,
2013-09-02 12:06:00,74.9,72.7,29.75,South,171,1.0,7.0,93,0.04,,OVC024,0.45,258.00,VWS V14.01,2013-09-02 16:06:00,
2013-09-02 12:11:00,75.1,72.9,29.75,South,186,4.0,7.0,93,0.04,,OVC024,0.45,120.00,VWS V14.01,2013-09-02 16:11:00,
2013-09-02 12:16:00,75.1,72.9,29.75,South,188,0.0,7.0,93,0.04,,OVC024,0.45,137.00,VWS V14.01,2013-09-02 16:16:00,
2013-09-02 12:21:00,75.1,72.9,29.75,South,182,2.0,7.0,93,0.04,,OVC024,0.45,271.00,VWS V14.01,2013-09-02 16:21:00,
2013-09-02 12:26:00,75.2,73.0,29.75,WSW,244,2.0,10.0,93,0.04,,OVC024,0.45,260.00,VWS V14.01,2013-09-02 16:26:00,
2013-09-02 12:31:00,75.3,72.8,29.75,South,175,3.0,10.0,92,0.04,,OVC024,0.45,207.00,VWS V14.01,2013-09-02 16:31:00,
2013-09-02 12:36:00,75.4,72.9,29.75,South,189,0.0,10.0,92,0.04,,OVC024,0.45,169.00,VWS V14.01,2013-09-02 16:36:00,
2013-09-02 12:41:00,75.4,72.9,29.75,SSW,200,7.0,10.0,92,0.04,,OVC015,0.45,105.00,VWS V14.01,2013-09-02 16:41:00,
2013-09-02 12:46:00,75.3,72.8,29.75,South,179,0.0,10.0,92,0.04,,OVC015,0.45,81.00,VWS V14.01,2013-09-02 16:46:00,
2013-09-02 12:51:00,75.1,72.6,29.74,SSW,204,1.0,10.0,92,0.04,,OVC015,0.45,37.00,VWS V14.01,2013-09-02 16:51:00,
2013-09-02 12:57:00,74.8,72.3,29.74,South,175,1.0,10.0,92,0.04,,OVC015,0.45,90.00,VWS V14.01,2013-09-02 16:57:00,
2013-09-02 13:02:00,74.8,72.3,29.74,South,169,1.0,3.0,92,0.00,,OVC015,0.45,28.00,VWS V14.01,2013-09-02 17:02:00,
2013-09-02 13:07:00,74.6,72.1,29.74,South,175,0.0,6.0,92,0.00,,OVC015,0.45,53.00,VWS V14.01,2013-09-02 17:07:00,
2013-09-02 13:12:00,74.4,72.2,29.74,SSE,167,1.0,9.0,93,0.00,,OVC015,0.45,54.00,VWS V14.01,2013-09-02 17:12:00,
2013-09-02 13:17:00,74.2,72.1,29.74,South,171,2.0,9.0,93,0.00,,OVC015,0.45,62.00,VWS V14.01,2013-09-02 17:17:00,
2013-09-02 13:22:00,74.1,71.9,29.74,SSW,203,2.0,9.0,93,0.00,,OVC042,0.45,86.00,VWS V14.01,2013-09-02 17:22:00,
2013-09-02 13:27:00,74.1,71.9,29.74,South,182,3.0,9.0,93,0.00,,OVC042,0.45,127.00,VWS V14.01,2013-09-02 17:27:00,
2013-09-02 13:32:00,74.2,72.1,29.74,SSE,166,3.0,9.0,93,0.00,,OVC042,0.45,120.00,VWS V14.01,2013-09-02 17:32:00,
2013-09-02 13:37:00,74.2,72.4,29.73,SSE,166,3.0,9.0,94,0.01,,OVC042,0.46,186.00,VWS V14.01,2013-09-02 17:37:00,
2013-09-02 13:42:00,74.4,72.6,29.73,South,177,0.0,9.0,94,0.01,,SCT030,0.46,200.00,VWS V14.01,2013-09-02 17:42:00,
2013-09-02 13:47:00,74.6,72.8,29.73,SSE,165,5.0,9.0,94,0.01,,SCT030,0.46,230.00,VWS V14.01,2013-09-02 17:47:00,
2013-09-02 13:52:00,74.7,72.9,29.73,SSE,161,3.0,9.0,94,0.01,,SCT030,0.46,216.00,VWS V14.01,2013-09-02 17:52:00,
2013-09-02 13:57:00,74.7,72.9,29.73,SSE,155,1.0,9.0,94,0.01,,SCT030,0.46,137.00,VWS V14.01,2013-09-02 17:57:00,
2013-09-02 14:02:00,74.6,72.8,29.72,South,169,3.0,6.0,94,0.01,,FEW042,0.46,163.00,VWS V14.01,2013-09-02 18:02:00,
2013-09-02 14:07:00,74.5,72.7,29.72,South,184,7.0,10.0,94,0.01,,FEW042,0.46,162.00,VWS V14.01,2013-09-02 18:07:00,
2013-09-02 14:12:00,74.4,72.6,29.72,SSE,164,1.0,10.0,94,0.01,,FEW042,0.46,179.00,VWS V14.01,2013-09-02 18:12:00,
2013-09-02 14:17:00,74.5,72.7,29.72,SSW,211,7.0,10.0,94,0.01,,FEW042,0.46,190.00,VWS V14.01,2013-09-02 18:17:00,
2013-09-02 14:23:00,74.3,72.5,29.72,SSW,196,3.0,10.0,94,0.01,,,0.46,151.00,VWS V14.01,2013-09-02 18:23:00,
2013-09-02 14:28:00,74.1,72.3,29.72,South,174,5.0,10.0,94,0.01,,,0.46,134.00,VWS V14.01,2013-09-02 18:28:00,
2013-09-02 14:33:00,73.8,72.0,29.72,SSW,202,7.0,11.0,94,0.01,,,0.46,125.00,VWS V14.01,2013-09-02 18:33:00,
2013-09-02 14:38:00,73.3,71.5,29.72,South,180,5.0,11.0,94,0.01,,,0.46,153.00,VWS V14.01,2013-09-02 18:38:00,
2013-09-02 14:43:00,72.9,70.8,29.71,SSE,165,2.0,12.0,93,0.01,,BKN110,0.46,190.00,VWS V14.01,2013-09-02 18:43:00,
2013-09-02 14:48:00,72.5,70.4,29.71,South,176,1.0,12.0,93,0.01,,BKN110,0.46,199.00,VWS V14.01,2013-09-02 18:48:00,
2013-09-02 14:53:00,72.4,70.3,29.71,South,180,2.0,12.0,93,0.01,,BKN110,0.46,214.00,VWS V14.01,2013-09-02 18:53:00,
2013-09-02 14:58:00,71.9,69.4,29.71,South,169,2.0,12.0,92,0.01,,BKN110,0.46,204.00,VWS V14.01,2013-09-02 18:58:00,
2013-09-02 15:03:00,71.7,69.3,29.71,SSE,161,4.0,5.0,92,0.00,,FEW006,0.46,200.00,VWS V14.01,2013-09-02 19:03:00,
2013-09-02 15:08:00,71.4,69.0,29.71,SSW,192,6.0,6.0,92,0.00,,FEW006,0.46,181.00,VWS V14.01,2013-09-02 19:08:00,
2013-09-02 15:13:00,71.3,68.9,29.70,WSW,240,1.0,6.0,92,0.00,,FEW006,0.46,181.00,VWS V14.01,2013-09-02 19:13:00,
2013-09-02 15:18:00,71.4,69.0,29.70,SSE,167,1.0,6.0,92,0.00,,FEW006,0.46,188.00,VWS V14.01,2013-09-02 19:18:00,
2013-09-02 15:23:00,71.5,69.1,29.70,SE,138,0.0,6.0,92,0.00,,CLR,0.46,207.00,VWS V14.01,2013-09-02 19:23:00,
2013-09-02 15:28:00,71.7,69.3,29.70,SSE,161,3.0,6.0,92,0.00,,CLR,0.46,188.00,VWS V14.01,2013-09-02 19:28:00,
2013-09-02 15:33:00,72.0,69.6,29.70,SW,232,0.0,8.0,92,0.00,,CLR,0.46,218.00,VWS V14.01,2013-09-02 19:33:00,
2013-09-02 15:38:00,72.5,70.1,29.69,SW,229,3.0,8.0,92,0.00,,CLR,0.46,185.00,VWS V14.01,2013-09-02 19:38:00,
2013-09-02 15:43:00,72.7,70.2,29.70,SSE,165,0.0,8.0,92,0.00,,CLR,0.46,200.00,VWS V14.01,2013-09-02 19:43:00,
2013-09-02 15:48:00,72.9,70.1,29.70,South,191,2.0,8.0,91,0.00,,CLR,0.46,237.00,VWS V14.01,2013-09-02 19:48:00,
2013-09-02 15:54:00,73.2,70.4,29.69,SSW,205,1.0,8.0,91,0.00,,CLR,0.46,225.00,VWS V14.01,2013-09-02 19:54:00,
2013-09-02 15:59:00,73.3,70.8,29.69,WSW,246,0.0,8.0,92,0.00,,CLR,0.46,246.00,VWS V14.01,2013-09-02 19:59:00,
2013-09-02 16:04:00,73.5,71.0,29.69,SW,216,0.0,3.0,92,0.00,,CLR,0.46,172.00,VWS V14.01,2013-09-02 20:04:00,
2013-09-02 16:09:00,73.6,70.8,29.70,SSW,202,2.0,7.0,91,0.00,,CLR,0.46,178.00,VWS V14.01,2013-09-02 20:09:00,
2013-09-02 16:14:00,73.7,70.9,29.70,SSW,194,0.0,7.0,91,0.00,,CLR,0.46,151.00,VWS V14.01,2013-09-02 20:14:00,
2013-09-02 16:19:00,73.9,71.1,29.69,SSW,205,1.0,7.0,91,0.00,,CLR,0.46,121.00,VWS V14.01,2013-09-02 20:19:00,
2013-09-02 16:24:00,74.0,71.2,29.69,SSE,161,1.0,7.0,91,0.00,,CLR,0.46,105.00,VWS V14.01,2013-09-02 20:24:00,
2013-09-02 16:29:00,74.0,71.2,29.69,SSW,202,0.0,7.0,91,0.00,,CLR,0.46,98.00,VWS V14.01,2013-09-02 20:29:00,
2013-09-02 16:34:00,73.9,71.1,29.69,SSW,202,1.0,7.0,91,0.00,,CLR,0.46,121.00,VWS V14.01,2013-09-02 20:34:00,
2013-09-02 16:39:00,73.7,70.6,29.69,SSE,167,3.0,7.0,90,0.00,,CLR,0.46,149.00,VWS V14.01,2013-09-02 20:39:00,
2013-09-02 16:44:00,73.9,71.1,29.69,SSE,158,5.0,7.0,91,0.00,,CLR,0.46,135.00,VWS V14.01,2013-09-02 20:44:00,
2013-09-02 16:49:00,73.9,71.1,29.69,SSE,157,0.0,7.0,91,0.00,,CLR,0.46,202.00,VWS V14.01,2013-09-02 20:49:00,
2013-09-02 16:54:00,74.0,71.2,29.69,South,180,1.0,7.0,91,0.00,,CLR,0.46,128.00,VWS V14.01,2013-09-02 20:54:00,
2013-09-02 16:59:00,74.0,71.2,29.69,SSW,192,5.0,7.0,91,0.00,,CLR,0.46,107.00,VWS V14.01,2013-09-02 20:59:00,
2013-09-02 17:04:00,73.9,71.1,29.69,SE,142,5.0,7.0,91,0.00,,CLR,0.46,76.00,VWS V14.01,2013-09-02 21:04:00,
2013-09-02 17:09:00,73.8,71.0,29.69,South,185,1.0,7.0,91,0.00,,CLR,0.46,65.00,VWS V14.01,2013-09-02 21:09:00,
2013-09-02 17:14:00,73.5,70.7,29.68,SSE,165,2.0,7.0,91,0.00,,CLR,0.46,70.00,VWS V14.01,2013-09-02 21:14:00,
2013-09-02 17:19:00,73.3,70.5,29.68,SSE,159,3.0,7.0,91,0.00,,CLR,0.46,76.00,VWS V14.01,2013-09-02 21:19:00,
2013-09-02 17:25:00,73.1,70.6,29.68,South,182,0.0,7.0,92,0.00,,BKN011,0.46,74.00,VWS V14.01,2013-09-02 21:25:00,
2013-09-02 17:30:00,73.1,70.6,29.68,SSE,166,3.0,7.0,92,0.00,,BKN011,0.46,67.00,VWS V14.01,2013-09-02 21:30:00,
2013-09-02 17:35:00,72.9,70.4,29.68,South,178,1.0,7.0,92,0.00,,BKN011,0.46,69.00,VWS V14.01,2013-09-02 21:35:00,
2013-09-02 17:40:00,72.8,70.3,29.68,South,176,0.0,7.0,92,0.00,,BKN013,0.46,47.00,VWS V14.01,2013-09-02 21:40:00,
2013-09-02 17:45:00,72.8,70.7,29.68,South,176,1.0,7.0,93,0.00,,BKN013,0.46,33.00,VWS V14.01,2013-09-02 21:45:00,
2013-09-02 17:50:00,72.8,70.7,29.68,South,182,1.0,7.0,93,0.00,,BKN013,0.46,28.00,VWS V14.01,2013-09-02 21:50:00,
2013-09-02 17:55:00,72.7,70.2,29.68,SE,145,1.0,7.0,92,0.00,,BKN013,0.46,33.00,VWS V14.01,2013-09-02 21:55:00,
2013-09-02 18:00:00,72.6,70.2,29.68,SSE,163,0.0,1.0,92,0.00,,BKN009,0.46,33.00,VWS V14.01,2013-09-02 22:00:00,
2013-09-02 18:05:00,72.4,70.3,29.68,South,172,2.0,2.0,93,0.00,,BKN009,0.46,23.00,VWS V14.01,2013-09-02 22:05:00,
2013-09-02 18:10:00,72.4,70.3,29.68,South,180,0.0,2.0,93,0.00,,BKN009,0.46,21.00,VWS V14.01,2013-09-02 22:10:00,
2013-09-02 18:15:00,72.3,70.2,29.68,South,178,0.0,4.0,93,0.00,,BKN009,0.46,21.00,VWS V14.01,2013-09-02 22:15:00,
2013-09-02 18:20:00,72.3,70.2,29.67,South,169,0.0,4.0,93,0.00,,OVC015,0.46,25.00,VWS V14.01,2013-09-02 22:20:00,
2013-09-02 18:25:00,72.2,70.1,29.67,SSE,165,0.0,4.0,93,0.00,,OVC015,0.46,21.00,VWS V14.01,2013-09-02 22:25:00,
2013-09-02 18:30:00,72.2,70.1,29.67,SSE,167,0.0,4.0,93,0.00,,OVC015,0.46,16.00,VWS V14.01,2013-09-02 22:30:00,
2013-09-02 18:35:00,72.2,70.4,29.67,South,176,0.0,4.0,94,0.00,,OVC015,0.46,21.00,VWS V14.01,2013-09-02 22:35:00,
2013-09-02 18:40:00,72.1,70.3,29.67,SSW,192,1.0,4.0,94,0.00,,OVC020,0.46,16.00,VWS V14.01,2013-09-02 22:40:00,
2013-09-02 18:45:00,72.0,69.9,29.67,South,174,0.0,4.0,93,0.00,,OVC020,0.46,12.00,VWS V14.01,2013-09-02 22:45:00,
2013-09-02 18:50:00,72.0,70.2,29.67,South,177,0.0,4.0,94,0.00,,OVC020,0.46,12.00,VWS V14.01,2013-09-02 22:50:00,
2013-09-02 18:56:00,72.0,70.2,29.68,SSE,167,0.0,4.0,94,0.00,,OVC020,0.46,11.00,VWS V14.01,2013-09-02 22:56:00,
2013-09-02 19:01:00,72.0,70.2,29.68,South,177,0.0,3.0,94,0.00,,OVC016,0.46,9.00,VWS V14.01,2013-09-02 23:01:00,
2013-09-02 19:06:00,72.0,70.2,29.68,SSE,168,1.0,5.0,94,0.00,,OVC016,0.46,5.00,VWS V14.01,2013-09-02 23:06:00,
2013-09-02 19:11:00,71.9,70.1,29.68,South,171,0.0,5.0,94,0.00,,OVC016,0.46,0.00,VWS V14.01,2013-09-02 23:11:00,
2013-09-02 19:16:00,71.9,70.1,29.68,South,186,3.0,5.0,94,0.00,,OVC016,0.46,0.00,VWS V14.01,2013-09-02 23:16:00,
2013-09-02 19:21:00,71.9,70.1,29.68,SSW,211,0.0,5.0,94,0.00,,OVC016,0.46,0.00,VWS V14.01,2013-09-02 23:21:00,
2013-09-02 19:26:00,71.8,70.0,29.67,SSE,166,1.0,5.0,94,0.00,,OVC016,0.46,0.00,VWS V14.01,2013-09-02 23:26:00,
2013-09-02 19:31:00,71.8,70.0,29.67,South,188,1.0,5.0,94,0.00,,OVC016,0.46,0.00,VWS V14.01,2013-09-02 23:31:00,
2013-09-02 19:36:00,71.7,69.9,29.67,South,187,0.0,5.0,94,0.00,,OVC016,0.46,0.00,VWS V14.01,2013-09-02 23:36:00,
2013-09-02 19:41:00,71.7,69.9,29.68,South,178,0.0,7.0,94,0.00,,OVC013,0.46,0.00,VWS V14.01,2013-09-02 23:41:00,
2013-09-02 19:46:00,71.7,69.9,29.67,South,173,3.0,7.0,94,0.00,,OVC013,0.46,0.00,VWS V14.01,2013-09-02 23:46:00,
2013-09-02 19:51:00,71.6,69.8,29.67,South,178,0.0,7.0,94,0.00,,OVC013,0.46,0.00,VWS V14.01,2013-09-02 23:51:00,
2013-09-02 19:56:00,71.6,69.8,29.67,SSE,168,0.0,7.0,94,0.00,,OVC013,0.46,0.00,VWS V14.01,2013-09-02 23:56:00,
2013-09-02 20:01:00,71.6,69.8,29.67,South,186,0.0,6.0,94,0.00,,OVC019,0.46,0.00,VWS V14.01,2013-09-03 00:01:00,
2013-09-02 20:06:00,71.6,69.8,29.67,SE,138,0.0,6.0,94,0.00,,OVC019,0.46,0.00,VWS V14.01,2013-09-03 00:06:00,
2013-09-02 20:11:00,71.6,69.8,29.67,SW,217,0.0,6.0,94,0.00,,OVC019,0.46,0.00,VWS V14.01,2013-09-03 00:11:00,
2013-09-02 20:16:00,71.6,70.1,29.67,South,187,0.0,6.0,95,0.00,,OVC019,0.46,0.00,VWS V14.01,2013-09-03 00:16:00,
2013-09-02 20:21:00,71.6,70.1,29.68,SSE,157,1.0,6.0,95,0.00,,OVC014,0.46,0.00,VWS V14.01,2013-09-03 00:21:00,
2013-09-02 20:27:00,71.6,70.1,29.67,South,190,1.0,6.0,95,0.00,,OVC014,0.46,0.00,VWS V14.01,2013-09-03 00:27:00,
2013-09-02 20:32:00,71.6,70.1,29.68,SE,136,0.0,6.0,95,0.00,,OVC014,0.46,0.00,VWS V14.01,2013-09-03 00:32:00,
2013-09-02 20:37:00,71.6,70.1,29.68,SSW,192,0.0,6.0,95,0.00,,OVC014,0.46,0.00,VWS V14.01,2013-09-03 00:37:00,
2013-09-02 20:42:00,71.6,70.1,29.68,SSE,163,0.0,6.0,95,0.00,,OVC002,0.46,0.00,VWS V14.01,2013-09-03 00:42:00,
2013-09-02 20:47:00,71.6,70.1,29.68,South,169,3.0,6.0,95,0.00,,OVC002,0.46,0.00,VWS V14.01,2013-09-03 00:47:00,
2013-09-02 20:52:00,71.6,70.1,29.68,SSE,148,0.0,6.0,95,0.00,,OVC002,0.46,0.00,VWS V14.01,2013-09-03 00:52:00,
2013-09-02 20:57:00,71.6,70.1,29.68,SSE,161,0.0,6.0,95,0.00,,OVC002,0.46,0.00,VWS V14.01,2013-09-03 00:57:00,
2013-09-02 21:02:00,71.6,70.1,29.68,South,177,4.0,5.0,95,0.00,,OVC002,0.46,0.00,VWS V14.01,2013-09-03 01:02:00,
2013-09-02 21:07:00,71.6,70.1,29.68,South,173,1.0,5.0,95,0.00,,OVC002,0.46,0.00,VWS V14.01,2013-09-03 01:07:00,
2013-09-02 21:12:00,71.6,70.1,29.68,SSE,158,0.0,5.0,95,0.00,,OVC002,0.46,0.00,VWS V14.01,2013-09-03 01:12:00,
2013-09-02 21:17:00,71.6,70.1,29.69,SSE,150,0.0,6.0,95,0.00,,OVC002,0.46,0.00,VWS V14.01,2013-09-03 01:17:00,
2013-09-02 21:22:00,71.5,70.0,29.69,SE,144,0.0,6.0,95,0.00,,OVC003,0.46,0.00,VWS V14.01,2013-09-03 01:22:00,
2013-09-02 21:27:00,71.5,70.0,29.69,South,182,0.0,6.0,95,0.00,,OVC003,0.46,0.00,VWS V14.01,2013-09-03 01:27:00,
2013-09-02 21:32:00,71.6,70.1,29.70,South,178,0.0,6.0,95,0.00,,OVC003,0.46,0.00,VWS V14.01,2013-09-03 01:32:00,
2013-09-02 21:37:00,71.5,70.0,29.70,South,178,0.0,6.0,95,0.00,,OVC003,0.46,0.00,VWS V14.01,2013-09-03 01:37:00,
2013-09-02 21:42:00,71.5,70.0,29.70,SSW,206,0.0,6.0,95,0.00,,OVC003,0.46,0.00,VWS V14.01,2013-09-03 01:42:00,
2013-09-02 21:47:00,71.5,70.0,29.70,SSW,206,0.0,6.0,95,0.00,,OVC003,0.46,0.00,VWS V14.01,2013-09-03 01:47:00,
2013-09-02 21:53:00,71.5,70.0,29.70,SSW,209,0.0,6.0,95,0.00,,OVC003,0.46,0.00,VWS V14.01,2013-09-03 01:53:00,
2013-09-02 21:58:00,71.5,70.0,29.70,South,179,0.0,6.0,95,0.00,,OVC003,0.46,0.00,VWS V14.01,2013-09-03 01:58:00,
2013-09-02 22:03:00,71.5,70.0,29.70,South,180,0.0,2.0,95,0.00,,OVC015,0.46,0.00,VWS V14.01,2013-09-03 02:03:00,
2013-09-02 22:08:00,71.5,70.0,29.70,SSE,167,0.0,4.0,95,0.00,,OVC015,0.46,0.00,VWS V14.01,2013-09-03 02:08:00,
2013-09-02 22:13:00,71.5,70.0,29.70,WSW,238,1.0,4.0,95,0.00,,OVC015,0.46,0.00,VWS V14.01,2013-09-03 02:13:00,
2013-09-02 22:18:00,71.5,70.0,29.70,South,182,3.0,4.0,95,0.00,,OVC015,0.46,0.00,VWS V14.01,2013-09-03 02:18:00,
2013-09-02 22:23:00,71.5,70.0,29.69,South,181,0.0,4.0,95,0.00,,OVC029,0.46,0.00,VWS V14.01,2013-09-03 02:23:00,
2013-09-02 22:28:00,71.5,70.0,29.69,SSE,168,1.0,4.0,95,0.00,,OVC029,0.46,0.00,VWS V14.01,2013-09-03 02:28:00,
2013-09-02 22:33:00,71.4,69.9,29.70,South,183,0.0,4.0,95,0.00,,OVC029,0.46,0.00,VWS V14.01,2013-09-03 02:33:00,
2013-09-02 22:38:00,71.4,69.9,29.70,South,184,0.0,4.0,95,0.00,,OVC029,0.46,0.00,VWS V14.01,2013-09-03 02:38:00,
2013-09-02 22:43:00,71.4,69.9,29.69,South,173,0.0,6.0,95,0.00,,OVC032,0.46,0.00,VWS V14.01,2013-09-03 02:43:00,
2013-09-02 22:48:00,71.4,69.9,29.69,South,173,1.0,6.0,95,0.00,,OVC032,0.46,0.00,VWS V14.01,2013-09-03 02:48:00,
2013-09-02 22:53:00,71.4,69.9,29.69,SSE,151,2.0,6.0,95,0.00,,OVC032,0.46,0.00,VWS V14.01,2013-09-03 02:53:00,
2013-09-02 22:58:00,71.3,69.8,29.69,South,177,1.0,6.0,95,0.00,,OVC032,0.46,0.00,VWS V14.01,2013-09-03 02:58:00,
2013-09-02 23:03:00,71.3,69.8,29.69,SSE,162,0.0,2.0,95,0.00,,SCT034,0.46,0.00,VWS V14.01,2013-09-03 03:03:00,
2013-09-02 23:08:00,71.2,69.7,29.69,SSE,162,1.0,2.0,95,0.00,,SCT034,0.46,0.00,VWS V14.01,2013-09-03 03:08:00,
2013-09-02 23:13:00,71.2,69.7,29.69,South,169,1.0,5.0,95,0.00,,SCT034,0.46,0.00,VWS V14.01,2013-09-03 03:13:00,
2013-09-02 23:18:00,71.2,69.7,29.69,SSE,165,2.0,5.0,95,0.00,,SCT034,0.46,0.00,VWS V14.01,2013-09-03 03:18:00,
2013-09-02 23:24:00,71.2,69.7,29.69,South,191,1.0,5.0,95,0.00,,CLR,0.46,0.00,VWS V14.01,2013-09-03 03:24:00,
2013-09-02 23:29:00,71.2,69.7,29.69,South,170,1.0,5.0,95,0.00,,CLR,0.46,0.00,VWS V14.01,2013-09-03 03:29:00,
2013-09-02 23:34:00,71.2,69.7,29.69,SW,233,1.0,5.0,95,0.00,,CLR,0.46,0.00,VWS V14.01,2013-09-03 03:34:00,
2013-09-02 23:39:00,71.2,69.7,29.69,SSW,213,0.0,5.0,95,0.00,,CLR,0.46,0.00,VWS V14.01,2013-09-03 03:39:00,
2013-09-02 23:44:00,71.2,69.7,29.69,SSW,195,2.0,6.0,95,0.00,,SCT005,0.46,0.00,VWS V14.01,2013-09-03 03:44:00,
2013-09-02 23:49:00,71.1,69.6,29.69,SW,215,1.0,6.0,95,0.00,,SCT005,0.46,0.00,VWS V14.01,2013-09-03 03:49:00,
2013-09-02 23:54:00,71.1,69.6,29.69,WSW,241,0.0,6.0,95,0.00,,SCT005,0.46,0.00,VWS V14.01,2013-09-03 03:54:00,
2013-09-02 23:59:00,71.1,69.6,29.69,SSE,167,0.0,6.0,95,0.00,,SCT005,0.46,0.00,VWS V14.01,2013-09-03 03:59:00,